TimePST,TemperatureF,Dew PointF,Humidity,Sea Level PressureIn,VisibilityMPH,Wind Direction,Wind SpeedMPH,Gust SpeedMPH,PrecipitationIn,Events,Conditions,WindDirDegrees,DateUTC
12:53 AM,50.0,39.0,66,30.04,10.0,Calm,Calm,-,N/A,,Clear,0,2013-11-10 08:53:00
1:53 AM,48.9,39.0,69,30.03,10.0,Calm,Calm,-,N/A,,Clear,0,2013-11-10 09:53:00
2:53 AM,48.9,41.0,74,30.04,10.0,Calm,Calm,-,N/A,,Clear,0,2013-11-10 10:53:00
3:53 AM,48.0,39.9,74,30.04,10.0,Calm,Calm,-,N/A,,Clear,0,2013-11-10 11:53:00
4:53 AM,46.9,39.0,74,30.06,10.0,Calm,Calm,-,N/A,,Clear,0,2013-11-10 12:53:00
5:53 AM,45.0,39.0,80,30.06,10.0,Calm,Calm,-,N/A,,Clear,0,2013-11-10 13:53:00
6:53 AM,44.1,37.0,76,30.08,10.0,Calm,Calm,-,N/A,,Clear,0,2013-11-10 14:53:00
7:53 AM,48.0,39.9,74,30.10,10.0,Calm,Calm,-,N/A,,Partly Cloudy,0,2013-11-10 15:53:00
8:53 AM,53.1,43.0,69,30.11,10.0,Calm,Calm,-,N/A,,Clear,0,2013-11-10 16:53:00
9:53 AM,57.0,45.0,64,30.11,10.0,Calm,Calm,-,N/A,,Clear,0,2013-11-10 17:53:00
10:53 AM,62.1,45.0,53,30.10,10.0,SW,3.5,-,N/A,,Clear,230,2013-11-10 18:53:00
11:53 AM,66.0,45.0,47,30.09,10.0,Calm,Calm,-,N/A,,Clear,0,2013-11-10 19:53:00
12:53 PM,68.0,43.0,40,30.06,10.0,South,3.5,-,N/A,,Clear,180,2013-11-10 20:53:00
1:53 PM,70.0,44.1,39,30.04,10.0,Variable,3.5,-,N/A,,Clear,0,2013-11-10 21:53:00
2:53 PM,72.0,42.1,34,30.04,10.0,Calm,Calm,-,N/A,,Clear,0,2013-11-10 22:53:00
3:53 PM,69.1,46.0,44,30.05,10.0,West,10.4,-,N/A,,Clear,280,2013-11-10 23:53:00
4:53 PM,64.0,46.9,54,30.06,10.0,WNW,6.9,-,N/A,,Clear,290,2013-11-11 00:53:00
5:53 PM,61.0,48.0,62,30.07,10.0,NW,3.5,-,N/A,,Clear,320,2013-11-11 01:53:00
6:53 PM,57.9,46.9,67,30.08,10.0,Calm,Calm,-,N/A,,Clear,0,2013-11-11 02:53:00
7:53 PM,55.0,45.0,69,30.09,10.0,Calm,Calm,-,N/A,,Clear,0,2013-11-11 03:53:00
8:53 PM,55.0,46.9,74,30.09,10.0,Calm,Calm,-,N/A,,Clear,0,2013-11-11 04:53:00
9:53 PM,53.1,46.9,80,30.11,10.0,WNW,6.9,-,N/A,,Clear,300,2013-11-11 05:53:00
10:53 PM,51.1,48.0,89,30.11,5.0,Calm,Calm,-,N/A,,Clear,0,2013-11-11 06:53:00
11:53 PM,48.9,43.0,80,30.10,10.0,Calm,Calm,-,N/A,,Clear,0,2013-11-11 07:53:00